BAW63LE LSZH-LSZH

Flight info

Callsign BAW63LE
Flight time 0h 10m
Altitude 34000
Route VEBIT1D/10 VEBIT T10 TORPA DCT REKLA DCT RLP DCT ROTSI DCT KOTUN DCT NINAL DCT ABNUR DCT DIMAL DCT ALESO
Aircraft A321/M-SDE3FGHIRWY/LB1

Departure

Time 2026-04-30 13:39
Airport Zürich Airport (LSZH)

Arrival

Time 2026-04-30 13:49
Airport Zürich Airport (LSZH)
Time Latitude Longitude Altitude Speed Heading
2026-04-30 13:39 47.45838 8.33532 11590 ft 339 kts 253°
2026-04-30 13:39 47.44587 8.27254 11677 ft 307 kts 253°
2026-04-30 13:40 47.43987 8.24245 11287 ft 304 kts 253°
2026-04-30 13:40 47.43395 8.21278 11062 ft 296 kts 253°
2026-04-30 13:40 47.43011 8.18361 10867 ft 286 kts 271°
2026-04-30 13:40 47.43455 8.15550 10547 ft 282 kts 298°
2026-04-30 13:41 47.44700 8.13357 10187 ft 280 kts 325°
2026-04-30 13:41 47.46469 8.12258 9930 ft 274 kts 349°
2026-04-30 13:41 47.48330 8.12197 9712 ft 267 kts 14°
2026-04-30 13:41 47.50010 8.13296 9394 ft 265 kts 31°
2026-04-30 13:42 47.51566 8.14766 9032 ft 265 kts 33°
2026-04-30 13:42 47.53096 8.16277 8710 ft 264 kts 33°
2026-04-30 13:42 47.56128 8.19297 8075 ft 261 kts 33°
2026-04-30 13:43 47.57624 8.20807 7753 ft 260 kts 37°
2026-04-30 13:43 47.58868 8.22729 7421 ft 260 kts 52°
2026-04-30 13:43 47.59958 8.24870 7050 ft 261 kts 53°
2026-04-30 13:43 47.61040 8.27054 6622 ft 265 kts 53°
2026-04-30 13:44 47.62140 8.29289 6089 ft 272 kts 53°
2026-04-30 13:44 47.63260 8.31567 5683 ft 273 kts 53°
2026-04-30 13:44 47.64369 8.33825 5283 ft 268 kts 53°
2026-04-30 13:44 47.65434 8.36055 4879 ft 262 kts 60°
2026-04-30 13:45 47.65260 8.40922 4173 ft 241 kts 134°
2026-04-30 13:45 47.63928 8.42311 3931 ft 230 kts 154°
2026-04-30 13:45 47.62494 8.43299 3788 ft 226 kts 156°
2026-04-30 13:46 47.61067 8.44264 3761 ft 225 kts 156°
2026-04-30 13:46 47.59646 8.45244 3772 ft 225 kts 156°
2026-04-30 13:46 47.58226 8.46227 3658 ft 225 kts 155°
2026-04-30 13:46 47.56825 8.47198 3400 ft 218 kts 155°
2026-04-30 13:47 47.55492 8.48121 3133 ft 205 kts 155°
2026-04-30 13:47 47.54235 8.48991 2870 ft 192 kts 155°
2026-04-30 13:47 47.53073 8.49794 2612 ft 176 kts 155°
2026-04-30 13:47 47.52018 8.50523 2394 ft 160 kts 155°
2026-04-30 13:48 47.51035 8.51202 2182 ft 152 kts 156°
2026-04-30 13:48 47.50082 8.51863 1979 ft 152 kts 155°
2026-04-30 13:48 47.49114 8.52537 1774 ft 155 kts 155°
2026-04-30 13:48 47.48140 8.53211 1559 ft 152 kts 156°
2026-04-30 13:49 47.47205 8.53848 1402 ft 139 kts 156°
2026-04-30 13:49 47.46462 8.54357 1404 ft 100 kts 155°
2026-04-30 13:49 47.45901 8.54743 1400 ft 65 kts 156°
2026-04-30 13:49 47.45555 8.54981 1403 ft 34 kts 154°
2026-04-30 13:50 47.45450 8.55106 1404 ft 18 kts 120°
2026-04-30 13:50 47.45379 8.55305 1400 ft 8 kts 94°
2026-04-30 13:50 47.45433 8.55347 1397 ft 13 kts 349°
2026-04-30 13:51 47.45519 8.55290 1407 ft 14 kts 334°